Shannon, Ireland

7:08 AM GMT on February 18, 2018 (GMT +0000)
Shannon

Weather History for EINN - November, 2014

Change the Weather History Date:

Saturday, November 29, 2014

  Actual Average Record
Temperature  
Mean Temperature 46 °F -  
Max Temperature 51 °F 48 °F 71 °F (2000)
Min Temperature 40 °F 38 °F 21 °F (2010)
Degree Days  
Heating Degree Days 20    
Moisture  
Dew Point 45 °F    
Average Humidity 93    
Maximum Humidity 100    
Minimum Humidity 79    
Precipitation  
Precipitation 0.00 in 0.13 in - ()
Sea Level Pressure  
Sea Level Pressure 29.82 in    
Wind  
Wind Speed 4 mph ()    
Max Wind Speed 9 mph    
Max Gust Speed -    
Visibility 3.4 miles    
Events Fog    
Averages and records for this station are not official NWS values.
T = Trace of Precipitation, MM = Missing Value Source: Averaged Metar Reports

Daily Weather History Graph

Daily Weather History Graph

Search for Another Location

Airport or City:

Trip Planner

Search our weather history database for the weather conditions in past years. The results will help you decide how hot, cold, wet, or windy it might be!

Date:

Astronomy

Nov. 29, 2014 Rise Set
Actual Time 8:21 AM GMT 4:26 PM GMT
Civil Twilight 7:41 AM GMT 5:06 PM GMT
Nautical Twilight 6:57 AM GMT 5:49 PM GMT
Astronomical Twilight 6:16 AM GMT 6:30 PM GMT
Moon 1:08 PM GMT (11/29) No Moon Set
Length of Visible Light 9h 25m
Length of Day
8h 04m
Waxing Crescent, 51% of the Moon is Illuminated
Nov 29
Waxing Crescent
Dec 6
Full
Dec 14
Last Quarter
Dec 22
New
Dec 28
First Quarter

Hourly Weather History & Observations

Time (GMT) Temp. Windchill Dew Point Humidity Pressure Visibility Wind Dir Wind Speed Gust Speed Precip Events Conditions
12:00 AM 50 °F - 46 °F 81% 29.75 in 4 mi NNE 6.7 mph - -   Mist
12:00 AM 50.0 °F - 46.4 °F 87% 29.74 in 3.7 mi NNE 5.8 mph - N/A   Mostly Cloudy
12:30 AM 48.2 °F - 46.4 °F 93% 29.74 in 3.7 mi NE 4.6 mph - N/A   Mostly Cloudy
1:00 AM 47 °F - 44 °F 86% 29.75 in 2 mi North 6.7 mph - -   Mist
1:00 AM 46.4 °F 42.9 °F 44.6 °F 93% 29.74 in 2.5 mi North 6.9 mph - N/A   Mostly Cloudy
1:30 AM 46.4 °F 42.9 °F 44.6 °F 93% 29.74 in 2.5 mi NNE 6.9 mph - N/A   Mostly Cloudy
2:00 AM 45 °F - 44 °F 93% 29.75 in 2 mi NNE 6.7 mph - -   Mist
2:00 AM 44.6 °F 40.7 °F 44.6 °F 100% 29.74 in 2.5 mi NNE 6.9 mph - N/A   Scattered Clouds
2:30 AM 42.8 °F 39.3 °F 42.8 °F 100% 29.74 in 2.5 mi NNE 5.8 mph - N/A   Partly Cloudy
3:00 AM 43 °F - 42 °F 96% 29.76 in 2 mi NNE 6.7 mph - -   Mist
3:00 AM 42.8 °F 38.6 °F 42.8 °F 100% 29.74 in 1.6 mi NNE 6.9 mph - N/A   Scattered Clouds
3:30 AM 44.6 °F - 42.8 °F 93% 29.74 in 1.6 mi SE 2.3 mph - N/A   Mostly Cloudy
4:00 AM 44 °F - 44 °F 100% 29.76 in 2 mi South 2.2 mph - -   Mist
4:00 AM 44.6 °F - 44.6 °F 100% 29.74 in 1.6 mi South 1.2 mph - N/A   Mostly Cloudy
4:30 AM 44.6 °F - 44.6 °F 100% 29.74 in 1.6 mi NNW 2.3 mph - N/A   Mostly Cloudy
5:00 AM 45 °F - 44 °F 93% 29.76 in 2 mi NE 4.5 mph - -   Mist
5:00 AM 44.6 °F 42.2 °F 44.6 °F 100% 29.74 in 1.6 mi NE 4.6 mph - N/A   Scattered Clouds
5:30 AM 42.8 °F - 42.8 °F 100% 29.77 in 1.2 mi Calm Calm - N/A   Partly Cloudy
6:00 AM 41 °F - 41 °F 100% 29.77 in 1 mi South 2.2 mph - - Fog Patches of Fog
6:00 AM 41.0 °F - 41.0 °F 100% 29.77 in 0.7 mi South 1.2 mph - N/A Fog Shallow Fog
6:30 AM 42.8 °F - 42.8 °F 100% 29.77 in 0.9 mi SSW 2.3 mph - N/A Fog Shallow Fog
7:00 AM 40 °F - 40 °F 100% 29.79 in 0 mi West 4.5 mph - - Fog Partial Fog
7:00 AM 41.0 °F 39.0 °F 41.0 °F 100% 29.77 in 0.4 mi West 3.5 mph - N/A Fog Fog
7:30 AM 41.0 °F - 41.0 °F 100% 29.77 in 1.2 mi Variable 2.3 mph - N/A   Mostly Cloudy
8:00 AM 42 °F - 42 °F 100% 29.80 in 1 mi WNW 4.5 mph - - Fog Light Fog
8:00 AM 42.8 °F 41.1 °F 42.8 °F 100% 29.80 in 1.2 mi WNW 3.5 mph - N/A   Mostly Cloudy
8:30 AM 42.8 °F 41.1 °F 42.8 °F 100% 29.80 in 0.9 mi SE 3.5 mph - N/A   Mostly Cloudy
9:00 AM 44 °F - 44 °F 99% 29.81 in 1 mi Calm Calm - -   Mist
9:00 AM 44.6 °F - 44.6 °F 100% 29.80 in 1.2 mi Calm Calm - N/A   Mostly Cloudy
9:30 AM 44.6 °F - 44.6 °F 100% 29.80 in 1.2 mi Calm Calm - N/A   Mostly Cloudy
10:00 AM 45 °F - 45 °F 99% 29.82 in 2 mi NE 2.2 mph - -   Mist
10:00 AM 44.6 °F - 44.6 °F 100% 29.80 in 1.9 mi NE 2.3 mph - N/A   Mostly Cloudy
10:30 AM 44.6 °F - 44.6 °F 100% 29.80 in 1.9 mi East 1.2 mph - N/A   Overcast
11:00 AM 45 °F - 45 °F 100% 29.83 in 2 mi SE 4.5 mph - -   Mist
11:00 AM 44.6 °F 43.1 °F 44.6 °F 100% 29.83 in 2.2 mi SE 3.5 mph - N/A   Overcast
11:30 AM 46.4 °F - 44.6 °F 93% 29.83 in 2.5 mi ESE 2.3 mph - N/A   Overcast
12:00 PM 46 °F - 46 °F 99% 29.83 in 3 mi SE 2.2 mph - -   Mist
12:00 PM 46.4 °F - 46.4 °F 100% 29.80 in 2.8 mi Variable 2.3 mph - N/A   Overcast
12:30 PM 48.2 °F - 46.4 °F 93% 29.83 in 3.7 mi Variable 1.2 mph - N/A   Mostly Cloudy
1:00 PM 47 °F - 46 °F 96% 29.83 in 4 mi Calm Calm - -   Mist
1:00 PM 48.2 °F - 46.4 °F 93% 29.83 in 3.7 mi Calm Calm - N/A   Mostly Cloudy
1:30 PM 48.2 °F - 46.4 °F 93% 29.80 in 4.3 mi ESE 1.2 mph - N/A   Mostly Cloudy
2:00 PM 49 °F - 47 °F 88% 29.82 in 5 mi South 2.2 mph - -   Mist
2:00 PM 48.2 °F - 46.4 °F 93% 29.80 in 5.0 mi South 1.2 mph - N/A   Mostly Cloudy
2:30 PM 50.0 °F - 46.4 °F 87% 29.83 in 5.6 mi WSW 3.5 mph - N/A   Mostly Cloudy
3:00 PM 51 °F - 47 °F 81% 29.85 in 6 mi WSW 8.9 mph - -   Mist
3:00 PM 50.0 °F - 46.4 °F 87% 29.83 in 5.6 mi WSW 8.1 mph - N/A   Mostly Cloudy
3:30 PM 50.0 °F - 46.4 °F 87% 29.83 in 5.6 mi WSW 4.6 mph - N/A   Mostly Cloudy
4:00 PM 51 °F - 46 °F 79% 29.86 in 6 mi WSW 6.7 mph - -   Mist
4:00 PM 51.8 °F - 46.4 °F 82% 29.86 in 5.6 mi WSW 5.8 mph - N/A   Mostly Cloudy
4:30 PM 51.8 °F - 46.4 °F 82% 29.86 in 5.6 mi SW 8.1 mph - N/A   Mostly Cloudy
5:00 PM 51 °F - 46 °F 79% 29.87 in 6 mi WSW 6.7 mph - -   Mist
5:00 PM 50.0 °F - 46.4 °F 87% 29.86 in 5.6 mi WSW 5.8 mph - N/A   Mostly Cloudy
5:30 PM 50.0 °F - 46.4 °F 87% 29.86 in 6.2 mi South 4.6 mph - N/A   Mostly Cloudy
6:00 PM 50 °F - 47 °F 84% 29.89 in 6 mi South 6.7 mph - -   Mist
6:00 PM 50.0 °F - 46.4 °F 87% 29.89 in 5.6 mi South 5.8 mph - N/A   Overcast
6:30 PM 50.0 °F - 46.4 °F 87% 29.89 in 5.6 mi South 4.6 mph - N/A   Mostly Cloudy
7:00 PM 49 °F - 47 °F 88% 29.91 in 5 mi SSE 6.7 mph - -   Mist
7:00 PM 50.0 °F - 46.4 °F 87% 29.89 in 5.0 mi SSE 5.8 mph - N/A   Mostly Cloudy
7:30 PM 50.0 °F - 46.4 °F 87% 29.89 in 5.6 mi South 5.8 mph - N/A   Mostly Cloudy
8:00 PM 50 °F - 46 °F 83% 29.92 in 5 mi South 6.7 mph - -   Mist
8:00 PM 50.0 °F - 46.4 °F 87% 29.92 in 5.0 mi South 5.8 mph - N/A   Mostly Cloudy
8:30 PM 50.0 °F - 46.4 °F 87% 29.92 in 5.0 mi South 6.9 mph - N/A   Mostly Cloudy
9:00 PM 50 °F - 47 °F 84% 29.93 in 5 mi South 6.7 mph - -   Mist
9:00 PM 50.0 °F - 46.4 °F 87% 29.92 in 5.0 mi South 6.9 mph - N/A   Mostly Cloudy
9:30 PM 50.0 °F - 46.4 °F 87% 29.92 in 5.0 mi South 6.9 mph - N/A   Mostly Cloudy
10:00 PM 51 °F - 47 °F 83% 29.94 in 5 mi SSW 6.7 mph - -   Mist
10:00 PM 50.0 °F - 48.2 °F 94% 29.92 in 5.0 mi SSW 6.9 mph - N/A   Mostly Cloudy
10:30 PM 50.0 °F - 48.2 °F 94% 29.92 in 5.0 mi SW 6.9 mph - N/A   Mostly Cloudy
11:00 PM 51 °F - 48 °F 87% 29.94 in 5 mi WSW 6.7 mph - -   Mist
11:00 PM 50.0 °F - 48.2 °F 94% 29.92 in 5.0 mi WSW 5.8 mph - N/A   Mostly Cloudy
11:30 PM 50.0 °F - 48.2 °F 94% 29.95 in 6.2 mi SW 8.1 mph - N/A   Mostly Cloudy